Meteo Giornale » Osservazioni meteo Corea del Sud » Kwangjeok

ore: 23:00 - Osservazioni Meteo Kwangjeok
Lat. 37° 48' N Lon. 126° 58' E Alt. 116 metri s.l.m.

nuvoloso

22 °C

Nuvoloso

Temp. 24 Ore

22 °C

25 °C

Nord

3.7 Km/h

Dew point 21 °C

Umidità 94 %

Visibilità  10 Km

Il sole sorge alle ore 06:01

Il sole tramonta alle ore 19:02

Data e Ora Cielo e Fenomeni T °C DP °C Um. % Pres. hPa Vis. km Vento km/h
Oggi h: 23:00 nuvoloso Nuvoloso 22 21 94 1014 10 N 3.7
Oggi h: 22:50 molto_nuvoloso Molto Nuvoloso 22 21 94 1014 10 N 1.8
Oggi h: 22:40 molto_nuvoloso Molto Nuvoloso 22 21 94 1014 10 N 1.8
Oggi h: 22:30 molto_nuvoloso Molto Nuvoloso 22 21 94 1013 10 N 1.8
Oggi h: 22:20 coperto Coperto 22 21 94 1014 10 N 1.8
Oggi h: 22:10 coperto Coperto 22 21 94 1014 10 N 1.8
Oggi h: 22:00 coperto Coperto 22 21 94 1014 10 N 1.8
Oggi h: 21:50 coperto Coperto 22 21 94 1014 10 N 1.8
Oggi h: 21:40 coperto Coperto 22 21 94 1014 10 N 1.8
Oggi h: 21:30 coperto Coperto 22 21 94 1014 10 N 1.8
Oggi h: 21:20 coperto Coperto 22 21 94 1014 10 N 1.8
Oggi h: 21:10 coperto Coperto 22 21 94 1014 6 N 1.8
Oggi h: 21:00 coperto Coperto 22 21 94 1014 5 N 1.8
Oggi h: 20:50 coperto Coperto 22 21 94 1014 6 N 1.8
Oggi h: 20:40 coperto Coperto 22 21 94 1013 6 N 1.8
Oggi h: 20:30 coperto_pioggia Pioviggine 22 21 94 1013 6 N 1.8
Oggi h: 20:20 coperto_pioggia Pioviggine 22 21 94 1013 5 N 0
Oggi h: 20:10 coperto_pioggia Pioggia Foschia 22 21 94 1013 5 N 1.8
Oggi h: 20:00 coperto_pioggia Pioggia 22 21 94 1012 3 N 0
Oggi h: 19:50 coperto_pioggia Pioviggine 22 21 94 1013 2 N 1.8
Oggi h: 19:40 coperto_pioggia Pioviggine 22 21 94 1012 3 N 1.8
Oggi h: 19:30 coperto_pioggia Pioviggine 22 21 94 1012 4 N 0
Oggi h: 19:20 coperto_pioggia Pioviggine 22 21 94 1012 4 N 0
Oggi h: 19:10 nuvoloso_piovaschi Pioggia 22 21 94 1012 5 N 1.8
Oggi h: 19:00 nuvoloso_piovaschi Pioggia 22 21 94 1012 5 N 1.8
Oggi h: 18:50 coperto Coperto 22 21 94 1012 10 N 3.7
Oggi h: 18:40 coperto Coperto 22 21 94 1012 10 N 3.7
Oggi h: 18:30 coperto Coperto 22 21 94 1012 10 N 3.7
Oggi h: 18:20 coperto Coperto 22 21 94 1012 10 N 1.8
Oggi h: 18:10 coperto_pioggia Pioviggine 22 21 94 1012 9 N 1.8
Oggi h: 18:00 coperto Coperto 23 20 83 1012 10 E/SE 7.4
Oggi h: 17:50 coperto Coperto 23 20 83 1012 10 N 5.5
Oggi h: 17:40 coperto Coperto 23 20 83 1012 10 E/SE 7.4
Oggi h: 17:30 coperto Coperto 23 21 88 1012 10 N 5.5
Oggi h: 17:20 coperto Coperto 23 21 88 1012 10 N 3.7
Oggi h: 17:10 coperto Coperto 23 21 88 1012 10 N 3.7
Oggi h: 17:00 coperto Coperto 22 21 94 1012 10 N 3.7
Oggi h: 16:50 coperto Coperto 22 21 94 1012 10 N 1.8
Oggi h: 16:40 nuvoloso_piovaschi Pioggia 23 21 88 1012 6 N 5.5
Oggi h: 16:30 nuvoloso_piovaschi Pioggia 23 21 88 1012 8 E/SE 14.8
Oggi h: 16:20 nuvoloso_piovaschi Pioggia 24 22 88 1012 5 N 3.7
Oggi h: 16:10 coperto Coperto 24 22 88 1012 10 N 3.7
Oggi h: 16:00 coperto Coperto 24 22 88 1012 10 N 3.7
Oggi h: 15:50 coperto Coperto 24 22 88 1012 10 N 3.7
Oggi h: 15:40 coperto Coperto 24 22 88 1012 10 N 1.8
Oggi h: 15:30 coperto Coperto 24 22 88 1012 10 N 3.7
Oggi h: 15:20 coperto Coperto 24 21 83 1012 10 N 5.5
Oggi h: 15:10 molto_nuvoloso Molto Nuvoloso 25 21 78 1012 10 N 1.8
Oggi h: 15:00 molto_nuvoloso Molto Nuvoloso 24 21 83 1012 10 N 3.7
Oggi h: 14:50 molto_nuvoloso Molto Nuvoloso 24 21 83 1012 10 N 5.5
Oggi h: 14:40 molto_nuvoloso Molto Nuvoloso 25 21 78 1012 10 N 5.5
Oggi h: 14:30 molto_nuvoloso Molto Nuvoloso 25 22 83 1012 10 N 3.7
Oggi h: 14:20 molto_nuvoloso Molto Nuvoloso 24 21 83 1012 10 N 5.5
Oggi h: 14:10 molto_nuvoloso Molto Nuvoloso 24 22 88 1012 10 N 5.5
Oggi h: 14:00 molto_nuvoloso Molto Nuvoloso 24 21 83 1012 10 N 3.7
Oggi h: 13:50 molto_nuvoloso Molto Nuvoloso 24 21 83 1012 10 N 5.5
Oggi h: 13:40 nuvoloso Nuvoloso 24 22 88 1012 10 N 5.5
Oggi h: 13:30 molto_nuvoloso Molto Nuvoloso 24 22 88 1013 10 N 5.5
Oggi h: 13:20 molto_nuvoloso Molto Nuvoloso 23 22 94 1012 10 N 3.7
Oggi h: 13:10 molto_nuvoloso Molto Nuvoloso 23 22 94 1012 10 N 5.5
Oggi h: 13:00 molto_nuvoloso Molto Nuvoloso 23 22 94 1012 9 N 5.5
Oggi h: 12:50 molto_nuvoloso Molto Nuvoloso 23 22 94 1013 10 N 3.7
Oggi h: 12:40 molto_nuvoloso Molto Nuvoloso 23 22 94 1013 8 N 3.7
Oggi h: 12:30 molto_nuvoloso Molto Nuvoloso 22 21 94 1013 10 N 3.7
Oggi h: 12:20 coperto_pioggia Pioggia 22 22 100 1013 3 N 5.5
Oggi h: 12:10 coperto_pioggia Pioggia 22 22 100 1013 5 N 5.5
Oggi h: 12:00 coperto_pioggia Pioggia 22 22 100 1013 3 N 7.4
Oggi h: 11:50 coperto_pioggia Pioggia 22 22 100 1014 9 N 5.5
Oggi h: 11:40 coperto_pioggia Pioggia 22 22 100 1013 8 N 7.4
Oggi h: 11:30 coperto_pioggia Pioggia 22 22 100 1014 9 N/NO 7.4
Oggi h: 11:20 nuvoloso_piovaschi Pioggia 22 21 94 1013 9 N 5.5
Oggi h: 11:10 coperto Coperto 22 21 94 1014 10 N/NO 9.3
Oggi h: 11:00 nuvoloso_piovaschi Pioggia 22 21 94 1014 9 N/NO 7.4
Oggi h: 10:50 molto_nuvoloso Molto Nuvoloso 22 22 100 1014 10 N 1.8
Oggi h: 10:40 molto_nuvoloso Molto Nuvoloso 22 21 94 1014 10 NO 7.4
Oggi h: 10:30 molto_nuvoloso Molto Nuvoloso 22 21 94 1014 10 N 5.5
Oggi h: 10:20 molto_nuvoloso Molto Nuvoloso 22 21 94 1014 10 N 5.5
Oggi h: 10:10 coperto Coperto 22 21 94 1014 10 N 3.7
Oggi h: 10:00 coperto Coperto 22 22 100 1014 10 N 3.7
Oggi h: 09:50 coperto Coperto 22 22 100 1014 10 N/NO 11.1
Oggi h: 09:40 coperto Coperto 22 22 100 1014 10 N 5.5
Oggi h: 09:30 coperto Coperto 22 22 100 1013 10 N 3.7
Oggi h: 09:20 coperto Coperto 22 22 100 1013 10 N 3.7
Oggi h: 09:10 coperto Coperto 22 22 100 1014 10 N 3.7
Oggi h: 09:00 nuvoloso_piovaschi Pioggia 23 22 94 1014 8 N 5.5
Oggi h: 08:50 nuvoloso_piovaschi Pioggia 23 22 94 1014 8 N 0
Oggi h: 08:40 nuvoloso_piovaschi Pioggia 23 22 94 1013 4 N 3.7
Oggi h: 08:30 nuvoloso_piovaschi Pioggia 23 22 94 1013 6 N 1.8
Oggi h: 08:20 coperto Coperto 23 22 94 1013 10 N 1.8
Oggi h: 08:10 coperto Coperto 23 22 94 1013 10 N 3.7
Oggi h: 08:00 coperto_pioggia Pioggia 23 22 94 1013 9 N 5.5
Oggi h: 07:50 coperto Coperto 23 22 94 1013 10 N 3.7
Oggi h: 07:40 coperto Coperto 23 21 88 1013 10 N 3.7
Oggi h: 07:30 coperto_pioggia Pioggia 23 22 94 1013 6 N 1.8
Oggi h: 07:20 coperto Coperto 23 22 94 1013 10 N 3.7
Oggi h: 07:10 coperto Coperto 23 22 94 1013 10 N 3.7
Oggi h: 07:00 coperto_pioggia Pioggia 23 22 94 1012 6 N 1.8
Oggi h: 06:50 nuvoloso_piovaschi Pioggia 23 22 94 1012 2 N 1.8
Oggi h: 06:40 nuvoloso_piovaschi Pioggia 23 22 94 1012 5 N 1.8
Oggi h: 06:30 coperto Coperto 23 22 94 1012 10 N 1.8
Oggi h: 06:20 coperto Coperto 23 22 94 1012 10 N 1.8
Oggi h: 06:10 coperto Coperto 23 22 94 1012 9 N 1.8
Oggi h: 06:00 nuvoloso_piovaschi Pioggia 23 22 94 1012 6 N 1.8
Oggi h: 05:50 coperto Coperto 23 22 94 1012 8 N 1.8
Oggi h: 05:40 coperto Coperto 23 22 94 1012 6 N 1.8
Oggi h: 05:30 coperto Coperto 23 22 94 1012 6 N 1.8
Oggi h: 05:20 coperto Coperto 23 22 94 1012 6 N 0
Oggi h: 05:10 coperto Coperto 23 22 94 1012 6 N 1.8
Oggi h: 05:00 coperto Coperto 23 22 94 1011 5 N 3.7
Oggi h: 04:50 nuvoloso_piovaschi Pioggia Foschia 23 22 94 1012 4 N 1.8
Oggi h: 04:40 nuvoloso_piovaschi Pioggia Foschia 23 22 94 1012 3 N 3.7
Oggi h: 04:30 nuvoloso_piovaschi Pioggia Foschia 23 22 94 1012 2 N 1.8
Oggi h: 04:20 nuvoloso_piovaschi Pioggia 23 22 94 1012 3 N 3.7
Oggi h: 04:10 nuvoloso_piovaschi Pioggia 23 22 94 1012 3 N 1.8
Oggi h: 04:00 nuvoloso_piovaschi Pioggia Foschia 23 22 94 1012 4 N 1.8
Oggi h: 03:50 coperto_pioggia Pioggia Foschia 23 22 94 1012 3 N 1.8
Oggi h: 03:40 coperto_pioggia Pioggia Foschia 23 22 94 1012 2 N 3.7
Oggi h: 03:30 coperto_pioggia Pioggia 23 22 94 1012 2 N 3.7
Oggi h: 03:20 coperto_pioggia Pioggia 23 22 94 1012 3 N 3.7
Oggi h: 03:10 coperto_pioggia Pioviggine 23 22 94 1012 3 N 3.7
Oggi h: 03:00 coperto Coperto 23 22 94 1012 5 N 3.7
Oggi h: 02:50 coperto Coperto 23 22 94 1012 5 N 1.8
Oggi h: 02:40 foschia Foschia 23 22 94 1012 4 N 3.7
Oggi h: 02:30 foschia Foschia 23 22 94 1012 4 N 3.7
Oggi h: 02:20 coperto Coperto 23 22 94 1012 5 N 1.8
Oggi h: 02:10 coperto Coperto 23 22 94 1011 6 N 1.8
Oggi h: 02:00 coperto Coperto 23 22 94 1012 8 N 1.8
Oggi h: 01:50 coperto Coperto 23 22 94 1011 9 N 1.8
Oggi h: 01:40 coperto Coperto 23 22 94 1012 10 N 3.7
Oggi h: 01:30 coperto Coperto 23 22 94 1012 10 N 0
Oggi h: 01:20 coperto Coperto 23 22 94 1012 10 N 0
Oggi h: 01:10 coperto Coperto 23 22 94 1012 9 N 1.8
Oggi h: 01:00 coperto Coperto 23 22 94 1012 10 N 1.8
Oggi h: 00:50 coperto Coperto 23 22 94 1012 10 N 0
Oggi h: 00:40 coperto Coperto 23 22 94 1012 10 N 1.8
Oggi h: 00:30 coperto Coperto 23 22 94 1012 9 N 1.8
Oggi h: 00:20 molto_nuvoloso Molto Nuvoloso 23 22 94 1012 9 N 1.8
Oggi h: 00:10 nuvoloso_piovaschi Pioggia 23 22 94 1012 8 N 3.7
Oggi h: 00:00 nuvoloso_piovaschi Pioggia 23 22 94 1012 6 N 5.5
Ieri h: 23:50 nuvoloso_piovaschi Pioggia 23 22 94 1011 5 N 3.7
Ieri h: 23:40 coperto_pioggia Pioggia 23 22 94 1012 5 N 1.8
Previsioni Meteo per località vicine a Kwangjeok